{"data":{"norad_id":52342,"epoch":"2026-05-24T21:38:37.694688Z","epoch_age_seconds":83695,"freshness":"FRESH","line1":"1 52342U 22045M   26144.90182517 -.00000044  00000+0  15339-4 0  9992","line2":"2 52342  53.2136 217.1084 0001316  90.7910 269.3233 15.08834216227285","mean_motion":15.08834216,"eccentricity":0.0001316,"inclination_deg":53.2136,"raan_deg":217.1084,"arg_perigee_deg":90.791,"mean_anomaly_deg":269.3233,"bstar":1.5339e-5,"rev_number":22728,"period_min":95.437920530296,"perigee_km":538.85067300885,"apogee_km":540.67146378046,"semimajor_km":6917.8980683947,"source":"CELESTRAK","updated_at":"2026-05-25T13:38:17.114558Z"}}